Location: Newark
(45.8667°N, 9.7333°E)
Time: 03:50:19
(UTC+00:00)

A-11 Canister half - Pass Details

Date: 27 January 2020
Orbit: 1517 x 1683 km, 47.2° (Epoch: 16 February)

Event Time Altitude Azimuth Distance (km) Brightness Sun altitude
Rises 23:59:55 0° 253° (WSW) 4,730 - -62.2°
Reaches altitude 10° 00:02:59 10° 253° (WSW) 3,728 - -62.1°
Maximum altitude 00:12:25 89° 167° (SSE) 1,529 - -61.6°
Drops below altitude 10° 00:21:42 10° 77° (ENE) 3,681 - -61.0°
Exits shadow 00:23:13 - 77° (ENE) 4,171 11.5 -60.9°
Sets 00:24:44 0° 78° (ENE) 4,667 11.8 -60.8°
